Regional Weather Roundup
Issued by NWS

Home | Current Version | Previous Version | Text Only | Print | Product List | Glossary On
Versions: 1 2 3 4 5 6 7 8 9 10 11 12 13 14 15 16 17 18 19 20 21 22 23 24 25 26 27 28 29 30 31 32 33 34 35 36 37 38 39 40 41 42 43 44 45 46 47 48 49 50
993
ASUS44 KLIX 240710
RWRLA
LOUISIANA WEATHER ROUNDUP
NATIONAL WEATHER SERVICE NEW ORLEANS LA
200 AM CDT THU APR 24 2014

NOTE: "FAIR" INDICATES FEW OR NO CLOUDS BELOW 12,000 FEET WITH NO
      SIGNIFICANT WEATHER AND/OR OBSTRUCTIONS TO VISIBILITY.
      SKY/WX - SKY CONDITION AND SIGNIFICANT WEATHER.
      TMP - AIR TEMPERATURE.    DP   - DEWPOINT TEMPERATURE.
      RH  - RELATIVE HUMIDITY.  PRES - PRESSURE.
      HX  - HEAT INDEX.         WCI  - WIND CHILL INDEX.

*  THESE STATIONS ARE NOT NWS OR FAA STATIONS AND ARE NOT UNDER
   NWS QUALITY CONTROL.

LAZ040-048-061>063-065-066-069-240800-
SOUTHEAST LOUISIANA

CITY           SKY/WX    TMP DP  RH WIND       PRES   REMARKS
N.O. AUDUBON   NOT AVBL
N.O. INTL ARPT CLEAR     66  63  90 SW5       29.92S
N.O. LAKEFRONT CLEAR     70  66  87 W8        29.93S
N.O. DOWNTOWN* FAIR      72  63  73 S5        29.93S
SLIDELL        CLEAR     62  58  86 CALM      29.92S
BATON ROUGE    CLEAR     67  62  84 W5        29.91F
BOOTHVILLE     CLEAR     69  66  90 S6        29.93S
BELLE CHASSE   CLEAR     63  57  82 CALM      29.92S FOG
BOGALUSA*        N/A     60  57  88 CALM      29.93F
GALLIANO*      SUNNY     63  60  91 CALM      29.93S
NEW ROADS*     FAIR      64  62  94 E3        29.92S
GONZALES*      FAIR      62  62 100 CALM      29.92S FOG
HAMMOND*       CLEAR     64  59  82 CALM      29.93F
HOUMA*         FOG       63  61  92 CALM      29.93S VSB 1/2
PORT FOURCHON* SUNNY     70  66  88 SW3       29.95S

$$

LAZ041-044-053-054-240800-
SOUTHWEST LOUISIANA

CITY           SKY/WX    TMP DP  RH WIND       PRES   REMARKS
LAKE CHARLES   PTCLDY    64  63  96 S3        29.88F FOG
LAFAYETTE      CLEAR     64  63  96 CALM      29.90F FOG
PATTERSON      CLEAR     63  63 100 CALM      29.95F
SALT POINT       N/A     70  67  90 CALM      29.90F
NEW IBERIA     CLEAR     64  62  93 SE3       29.91F
CHENAULT AIRPK FOG       63  63 100 S5        29.90F VSB 1

$$

LAZ027-028-240800-
CENTRAL LOUISIANA

CITY           SKY/WX    TMP DP  RH WIND       PRES   REMARKS
FORT POLK      MOCLDY    64  62  93 S3        29.89F
ALEXANDRIA INT PTCLDY    62  60  93 SE6       29.87F
ALEXANDRIA     CLEAR     58  55  90 CALM      29.89F

$$

LAZ001-002-240800-
NORTHWEST LOUISIANA

CITY           SKY/WX    TMP DP  RH WIND       PRES   REMARKS
SHREVEPORT     MOCLDY    64  58  80 S8        29.83F
BARKSDALE AFB  PTCLDY    64  55  73 SE7       29.84F
DTN SHREVEPORT PTCLDY    65  57  75 SE7       29.84F

$$

LAZ014-016-240800-
NORTHEAST LOUISIANA

CITY           SKY/WX    TMP DP  RH WIND       PRES   REMARKS
MONROE         CLEAR     55  49  80 CALM      29.88F
TALLULAH       CLEAR     58  55  90 SE3       29.90F

$$




USA.gov is the U.S. government's official web portal to all federal, state and local government web resources and services.